Athens Eleftherios, Greece

4:35 PM EET on December 12, 2017 (GMT +0200)
Eleftherios Venizelos International

Weather History for LGAV - January, 2013

Change the Weather History Date:

Monday, January 14, 2013

  Actual Average (LGAT) Record (LGAT)
Temperature  
Mean Temperature 48 °F -  
Max Temperature 59 °F 55 °F 62 °F (2017)
Min Temperature 37 °F 43 °F 39 °F (2000)
Degree Days  
Heating Degree Days 17    
Moisture  
Dew Point 42 °F    
Average Humidity 80    
Maximum Humidity 93    
Minimum Humidity 63    
Precipitation  
Precipitation 0.00 in - - ()
Sea Level Pressure  
Sea Level Pressure 30.27 in    
Wind  
Wind Speed 3 mph ()    
Max Wind Speed 10 mph    
Max Gust Speed -    
Visibility 6.2 miles    
Events      
Averages and records for this station are not official NWS values.
T = Trace of Precipitation, MM = Missing Value Source: Averaged Metar Reports

Daily Weather History Graph

Daily Weather History Graph

Search for Another Location

Airport or City:

Trip Planner

Search our weather history database for the weather conditions in past years. The results will help you decide how hot, cold, wet, or windy it might be!

Date:

Astronomy

Jan. 14, 2013 Rise Set
Actual Time 7:39 AM EET 5:27 PM EET
Civil Twilight 7:10 AM EET 5:56 PM EET
Nautical Twilight 6:38 AM EET 6:29 PM EET
Astronomical Twilight 6:06 AM EET 7:00 PM EET
Moon 9:05 AM EET (1/14) 8:48 PM EET (1/14)
Length of Visible Light 10h 46m
Length of Day
9h 48m
Waxing Crescent, 9% of the Moon is Illuminated
Jan 14
Waxing Crescent
Jan 19
First Quarter
Jan 27
Full
Feb 3
Last Quarter
Feb 10
New

Hourly Weather History & Observations

Time (EET) Temp. Windchill Dew Point Humidity Pressure Visibility Wind Dir Wind Speed Gust Speed Precip Events Conditions
12:20 AM 41.0 °F - 39.2 °F 93% 30.24 in 6.2 mi North 2.3 mph - N/A   Mostly Cloudy
12:50 AM 41.0 °F 38.0 °F 39.2 °F 93% 30.24 in 6.2 mi NNE 4.6 mph - N/A   Scattered Clouds
1:20 AM 39.2 °F 37.0 °F 37.4 °F 93% 30.24 in 6.2 mi NW 3.5 mph - N/A   Scattered Clouds
1:50 AM 41.0 °F - 37.4 °F 87% 30.24 in 6.2 mi Variable 2.3 mph - N/A   Scattered Clouds
2:20 AM 39.2 °F - 35.6 °F 87% 30.27 in 6.2 mi West 2.3 mph - N/A   Partly Cloudy
2:50 AM 39.2 °F - 37.4 °F 93% 30.24 in 6.2 mi NNW 1.2 mph - N/A   Scattered Clouds
3:20 AM 37.4 °F - 35.6 °F 93% 30.24 in 6.2 mi WNW 1.2 mph - N/A   Scattered Clouds
3:50 AM 39.2 °F 35.9 °F 37.4 °F 93% 30.24 in 6.2 mi WNW 4.6 mph - N/A   Scattered Clouds
4:20 AM 39.2 °F 37.0 °F 37.4 °F 93% 30.24 in 6.2 mi WNW 3.5 mph - N/A   Mostly Cloudy
4:50 AM 39.2 °F - 35.6 °F 87% 30.24 in 6.2 mi West 2.3 mph - N/A   Mostly Cloudy
5:20 AM 39.2 °F - 35.6 °F 87% 30.24 in 6.2 mi Calm Calm - N/A   Mostly Cloudy
5:50 AM 39.2 °F - 37.4 °F 93% 30.24 in 6.2 mi Variable 2.3 mph - N/A   Scattered Clouds
6:20 AM 41.0 °F 39.0 °F 39.2 °F 93% 30.27 in 6.2 mi WNW 3.5 mph - N/A   Mostly Cloudy
6:50 AM 41.0 °F - 35.6 °F 81% 30.27 in 6.2 mi WSW 2.3 mph - N/A   Mostly Cloudy
7:20 AM 42.8 °F - 39.2 °F 87% 30.27 in 6.2 mi Calm Calm - N/A   Scattered Clouds
8:20 AM 44.6 °F - 39.2 °F 81% 30.30 in 6.2 mi Variable 1.2 mph - N/A   Mostly Cloudy
8:50 AM 44.6 °F - 41.0 °F 87% 30.30 in 6.2 mi West 1.2 mph - N/A   Mostly Cloudy
9:20 AM 46.4 °F - 42.8 °F 87% 30.30 in 6.2 mi Variable 1.2 mph - N/A   Mostly Cloudy
9:50 AM 48.2 °F - 44.6 °F 87% 30.30 in 6.2 mi Calm Calm - N/A   Mostly Cloudy
10:20 AM 48.2 °F - 44.6 °F 87% 30.30 in 6.2 mi Calm Calm - N/A   Mostly Cloudy
10:50 AM 51.8 °F - 46.4 °F 82% 30.30 in 6.2 mi Calm Calm - N/A   Mostly Cloudy
11:20 AM 53.6 °F - 48.2 °F 82% 30.30 in 6.2 mi Variable 1.2 mph - N/A   Mostly Cloudy
11:50 AM 55.4 °F - 48.2 °F 77% 30.30 in 6.2 mi Variable 1.2 mph - N/A   Mostly Cloudy
12:20 PM 55.4 °F - 46.4 °F 72% 30.30 in 6.2 mi Calm Calm - N/A   Mostly Cloudy
12:50 PM 55.4 °F - 44.6 °F 67% 30.27 in 6.2 mi Variable 2.3 mph - N/A   Mostly Cloudy
1:20 PM 57.2 °F - 44.6 °F 63% 30.27 in 6.2 mi SSE 5.8 mph - N/A   Mostly Cloudy
1:50 PM 57.2 °F - 44.6 °F 63% 30.27 in 6.2 mi SE 5.8 mph - N/A   Mostly Cloudy
2:20 PM 57.2 °F - 46.4 °F 67% 30.27 in 6.2 mi SE 5.8 mph - N/A   Mostly Cloudy
2:50 PM 59.0 °F - 46.4 °F 63% 30.27 in 6.2 mi SSE 8.1 mph - N/A   Mostly Cloudy
3:20 PM 57.2 °F - 46.4 °F 67% 30.27 in 6.2 mi South 9.2 mph - N/A   Mostly Cloudy
3:50 PM 59.0 °F - 46.4 °F 63% 30.27 in 6.2 mi South 10.4 mph - N/A   Mostly Cloudy
4:20 PM 57.2 °F - 46.4 °F 67% 30.27 in 6.2 mi SSE 6.9 mph - N/A   Mostly Cloudy
4:50 PM 59.0 °F - 46.4 °F 63% 30.27 in 6.2 mi South 6.9 mph - N/A   Scattered Clouds
5:20 PM 57.2 °F - 46.4 °F 67% 30.27 in 6.2 mi SSE 6.9 mph - N/A   Scattered Clouds
5:50 PM 55.4 °F - 44.6 °F 67% 30.27 in 6.2 mi SSE 3.5 mph - N/A   Scattered Clouds
6:20 PM 53.6 °F - 44.6 °F 72% 30.27 in 6.2 mi South 5.8 mph - N/A   Scattered Clouds
6:50 PM 53.6 °F - 44.6 °F 72% 30.27 in 6.2 mi Variable 2.3 mph - N/A   Partly Cloudy
7:20 PM 51.8 °F - 42.8 °F 71% 30.27 in 6.2 mi NNW 3.5 mph - N/A   Scattered Clouds
7:50 PM 51.8 °F - 44.6 °F 76% 30.27 in 6.2 mi NNE 2.3 mph - N/A   Scattered Clouds
8:20 PM 48.2 °F - 41.0 °F 76% 30.27 in 6.2 mi North 3.5 mph - N/A   Scattered Clouds
8:50 PM 48.2 °F - 42.8 °F 82% 30.27 in 6.2 mi Variable 1.2 mph - N/A   Scattered Clouds
9:20 PM 46.4 °F 45.2 °F 41.0 °F 81% 30.27 in 6.2 mi North 3.5 mph - N/A   Partly Cloudy
9:50 PM 46.4 °F - 41.0 °F 81% 30.27 in 6.2 mi Variable 1.2 mph - N/A   Partly Cloudy
10:20 PM 46.4 °F - 41.0 °F 81% 30.27 in 6.2 mi North 2.3 mph - N/A   Partly Cloudy
10:50 PM 44.6 °F 43.1 °F 41.0 °F 87% 30.27 in 6.2 mi North 3.5 mph - N/A   Scattered Clouds
11:20 PM 42.8 °F - 39.2 °F 87% 30.30 in 6.2 mi North 2.3 mph - N/A   Scattered Clouds
11:50 PM 42.8 °F - 41.0 °F 93% 30.30 in 6.2 mi Variable 1.2 mph - N/A   Partly Cloudy